TimeCST,TemperatureF,Dew PointF,Humidity,Sea Level PressureIn,VisibilityMPH,Wind Direction,Wind SpeedMPH,Gust SpeedMPH,PrecipitationIn,Events,Conditions,WindDirDegrees,DateUTC
12:15 AM,29.7,26.2,87,30.07,10.0,NW,10.4,-,N/A,,Overcast,320,2012-12-27 06:15:00
12:35 AM,29.3,25.7,86,30.07,10.0,NW,11.5,17.3,N/A,,Overcast,320,2012-12-27 06:35:00
12:55 AM,29.3,25.7,86,30.08,10.0,NW,11.5,-,N/A,,Overcast,320,2012-12-27 06:55:00
1:15 AM,29.3,25.7,86,30.09,10.0,NW,11.5,-,N/A,,Overcast,310,2012-12-27 07:15:00
1:35 AM,29.3,25.7,86,30.10,10.0,NW,10.4,-,N/A,,Overcast,310,2012-12-27 07:35:00
1:55 AM,29.1,25.5,86,30.12,10.0,NW,12.7,-,N/A,,Overcast,310,2012-12-27 07:55:00
2:15 AM,28.9,25.3,86,30.12,10.0,NW,12.7,-,N/A,,Overcast,310,2012-12-27 08:15:00
2:35 AM,28.8,25.3,87,30.12,10.0,NW,9.2,-,N/A,,Overcast,320,2012-12-27 08:35:00
2:55 AM,28.6,25.3,88,30.12,10.0,NW,8.1,-,N/A,,Overcast,320,2012-12-27 08:55:00
3:15 AM,28.4,25.3,88,30.11,10.0,NNW,9.2,-,N/A,,Overcast,330,2012-12-27 09:15:00
3:35 AM,28.4,24.8,86,30.11,10.0,NNW,9.2,-,N/A,,Overcast,330,2012-12-27 09:35:00
3:55 AM,28.4,24.8,86,30.11,10.0,NNW,8.1,-,N/A,,Overcast,330,2012-12-27 09:55:00
4:15 AM,28.4,24.8,86,30.12,10.0,NW,6.9,-,N/A,,Overcast,320,2012-12-27 10:15:00
4:35 AM,28.2,24.8,87,30.12,10.0,NW,6.9,-,N/A,,Overcast,320,2012-12-27 10:35:00
4:55 AM,28.2,24.8,87,30.12,10.0,WNW,8.1,-,N/A,,Overcast,300,2012-12-27 10:55:00
5:15 AM,28.4,24.8,86,30.12,10.0,NNW,5.8,-,N/A,,Overcast,330,2012-12-27 11:15:00
5:35 AM,28.2,25.2,88,30.13,10.0,NW,4.6,-,N/A,,Overcast,310,2012-12-27 11:35:00
5:55 AM,28.2,25.2,88,30.14,10.0,WNW,5.8,-,N/A,,Overcast,300,2012-12-27 11:55:00
6:15 AM,28.2,25.2,88,30.15,10.0,Calm,Calm,-,N/A,,Overcast,0,2012-12-27 12:15:00
6:35 AM,28.2,25.3,89,30.16,10.0,NW,3.5,-,N/A,,Overcast,320,2012-12-27 12:35:00
6:55 AM,28.2,25.2,88,30.15,10.0,NW,6.9,-,N/A,,Overcast,320,2012-12-27 12:55:00
7:15 AM,28.2,25.3,89,30.17,10.0,WNW,6.9,-,N/A,,Overcast,300,2012-12-27 13:15:00
7:35 AM,28.2,25.3,89,30.17,10.0,NW,4.6,-,N/A,,Overcast,320,2012-12-27 13:35:00
7:55 AM,28.2,25.3,89,30.17,10.0,NW,5.8,-,N/A,,Overcast,310,2012-12-27 13:55:00
8:15 AM,28.4,25.5,89,30.17,10.0,NW,5.8,-,N/A,,Overcast,310,2012-12-27 14:15:00
8:35 AM,28.6,25.5,88,30.18,10.0,WNW,4.6,-,N/A,,Overcast,300,2012-12-27 14:35:00
8:55 AM,28.9,25.7,88,30.18,10.0,NW,4.6,-,N/A,,Overcast,310,2012-12-27 14:55:00
9:15 AM,29.3,25.7,86,30.19,10.0,WNW,3.5,-,N/A,,Overcast,290,2012-12-27 15:15:00
9:35 AM,29.3,25.7,86,30.20,10.0,Calm,Calm,-,N/A,,Overcast,0,2012-12-27 15:35:00
9:55 AM,29.8,25.7,85,30.20,10.0,Calm,Calm,-,N/A,,Overcast,0,2012-12-27 15:55:00
10:15 AM,30.2,26.6,86,30.19,10.0,Calm,Calm,-,N/A,,Overcast,0,2012-12-27 16:15:00
10:35 AM,30.6,25.9,83,30.19,10.0,Calm,Calm,-,N/A,,Overcast,0,2012-12-27 16:35:00
10:55 AM,31.5,25.2,78,30.18,10.0,Calm,Calm,-,N/A,,Overcast,0,2012-12-27 16:55:00
11:15 AM,31.5,25.5,79,30.18,10.0,West,3.5,-,N/A,,Overcast,260,2012-12-27 17:15:00
11:35 AM,31.5,25.0,77,30.17,10.0,Calm,Calm,-,N/A,,Overcast,0,2012-12-27 17:35:00
11:55 AM,31.3,24.1,75,30.16,10.0,Calm,Calm,-,N/A,,Overcast,0,2012-12-27 17:55:00
12:15 PM,31.5,23.9,74,30.17,10.0,Calm,Calm,-,N/A,,Overcast,0,2012-12-27 18:15:00
12:35 PM,31.6,24.1,74,30.15,10.0,Calm,Calm,-,N/A,,Overcast,0,2012-12-27 18:35:00
12:55 PM,31.5,24.4,75,30.15,10.0,Calm,Calm,-,N/A,,Overcast,0,2012-12-27 18:55:00
1:15 PM,31.5,24.3,75,30.15,10.0,Calm,Calm,-,N/A,,Overcast,0,2012-12-27 19:15:00
1:35 PM,31.1,24.4,76,30.15,10.0,WSW,3.5,-,N/A,,Overcast,250,2012-12-27 19:35:00
1:55 PM,30.9,24.3,76,30.14,10.0,Calm,Calm,-,N/A,,Overcast,0,2012-12-27 19:55:00
2:15 PM,30.9,24.4,77,30.14,10.0,Calm,Calm,-,N/A,,Overcast,0,2012-12-27 20:15:00
2:35 PM,30.9,24.6,77,30.15,10.0,Calm,Calm,-,N/A,,Overcast,0,2012-12-27 20:35:00
2:55 PM,30.7,25.2,80,30.15,10.0,SW,3.5,-,N/A,,Overcast,220,2012-12-27 20:55:00
3:15 PM,30.6,24.8,79,30.15,10.0,Calm,Calm,-,N/A,,Overcast,0,2012-12-27 21:15:00
3:35 PM,30.6,24.8,79,30.17,10.0,Calm,Calm,-,N/A,,Overcast,0,2012-12-27 21:35:00
3:55 PM,30.2,25.2,82,30.15,10.0,Calm,Calm,-,N/A,,Overcast,0,2012-12-27 21:55:00
4:15 PM,30.2,25.2,82,30.15,10.0,Calm,Calm,-,N/A,,Overcast,0,2012-12-27 22:15:00
4:35 PM,30.2,25.3,82,30.16,10.0,Calm,Calm,-,N/A,,Overcast,0,2012-12-27 22:35:00
4:55 PM,30.0,25.3,83,30.17,10.0,Calm,Calm,-,N/A,,Overcast,0,2012-12-27 22:55:00
5:15 PM,30.0,25.7,84,30.16,-9999.0,Calm,Calm,-,N/A,,Overcast,0,2012-12-27 23:15:00
5:35 PM,29.8,25.3,83,30.15,-9999.0,Calm,Calm,-,N/A,,Overcast,0,2012-12-27 23:35:00
5:55 PM,29.7,25.0,83,30.16,-9999.0,Calm,Calm,-,N/A,,Overcast,0,2012-12-27 23:55:00
6:15 PM,29.7,25.7,85,30.16,-9999.0,Calm,Calm,-,N/A,,Overcast,0,2012-12-28 00:15:00
6:35 PM,29.7,25.3,84,30.15,-9999.0,Calm,Calm,-,N/A,,Overcast,0,2012-12-28 00:35:00
6:55 PM,29.8,25.5,84,30.15,-9999.0,Calm,Calm,-,N/A,,Overcast,0,2012-12-28 00:55:00
7:15 PM,29.8,25.5,84,30.14,-9999.0,Calm,Calm,-,N/A,,Overcast,0,2012-12-28 01:15:00
7:35 PM,30.0,25.3,83,30.14,-9999.0,Calm,Calm,-,N/A,,Overcast,0,2012-12-28 01:35:00
7:55 PM,29.8,25.9,85,30.13,-9999.0,SE,4.6,-,N/A,,Overcast,130,2012-12-28 01:55:00
8:15 PM,29.8,26.2,86,30.14,-9999.0,SSE,3.5,-,N/A,,Overcast,150,2012-12-28 02:15:00
8:35 PM,30.0,26.2,86,30.14,-9999.0,SSE,5.8,-,N/A,,Overcast,160,2012-12-28 02:35:00
8:55 PM,30.2,25.7,83,30.15,-9999.0,South,5.8,-,N/A,,Overcast,170,2012-12-28 02:55:00
9:15 PM,30.2,25.3,82,30.14,-9999.0,South,9.2,-,N/A,,Overcast,170,2012-12-28 03:15:00
9:35 PM,30.2,25.3,82,30.14,-9999.0,SSE,5.8,-,N/A,,Overcast,150,2012-12-28 03:35:00
9:55 PM,30.2,25.3,82,30.15,-9999.0,SSE,3.5,-,N/A,,Overcast,150,2012-12-28 03:55:00
10:15 PM,30.2,25.7,83,30.14,-9999.0,SSE,4.6,-,N/A,,Overcast,150,2012-12-28 04:15:00
10:35 PM,30.2,25.7,83,30.14,-9999.0,SSE,4.6,-,N/A,,Overcast,160,2012-12-28 04:35:00
10:55 PM,30.2,25.7,83,30.14,-9999.0,SSE,3.5,-,N/A,,Overcast,160,2012-12-28 04:55:00
11:15 PM,30.0,26.2,86,30.14,-9999.0,Calm,Calm,-,N/A,,Overcast,0,2012-12-28 05:15:00
11:35 PM,30.0,25.9,85,30.13,-9999.0,Calm,Calm,-,N/A,,Overcast,0,2012-12-28 05:35:00
11:55 PM,29.8,26.2,86,30.13,-9999.0,Calm,Calm,-,N/A,,Overcast,0,2012-12-28 05:55:00